This is the latest recevied weather packets stored in our database for station/object KD8DLP-13. If no packets are shown the sender has not sent any weather packets the latest 10 day(s).
| Time | Temp. | Humidity | Pressure | Rain* | Wind** | Luminosity | Snow |
|---|---|---|---|---|---|---|---|
| 1777988602 | 12.22° C | 50% | 1008.2 hPa | 0 mm | - | 366 W/m² | - |
| 1777988298 | 11.67° C | 53% | 1008.3 hPa | 0 mm | - | 260 W/m² | - |
| 1777987995 | 12.22° C | 55% | 1008.1 hPa | 0 mm | - | 286 W/m² | - |
| 1777987690 | 11.67° C | 58% | 1008.5 hPa | 0 mm | - | 251 W/m² | - |
| 1777987388 | 10.56° C | 60% | 1008.2 hPa | 0 mm | - | 314 W/m² | - |
| 1777987085 | 10.56° C | 65% | 1008.8 hPa | 0 mm | - | 181 W/m² | - |
| 1777986782 | 10° C | 66% | 1008.4 hPa | 0 mm | - | 165 W/m² | - |
| 1777986480 | 10° C | 65% | 1008.1 hPa | 0 mm | - | 134 W/m² | - |
| 1777986178 | 10° C | 68% | 1008 hPa | 0 mm | - | 139 W/m² | - |
| 1777985875 | 10.56° C | 70% | 1007.8 hPa | 0 mm | - | 136 W/m² | - |
| 1777985572 | 10.56° C | 72% | 1007.9 hPa | 0 mm | - | 148 W/m² | - |
| 1777985268 | 9.44° C | 73% | 1007.9 hPa | 0 mm | - | 169 W/m² | - |
| 1777984965 | 9.44° C | 74% | 1007.5 hPa | 0 mm | - | 118 W/m² | - |
| 1777984661 | 9.44° C | 74% | 1007.4 hPa | 0 mm | - | 52 W/m² | - |
| 1777984358 | 9.44° C | 75% | 1007 hPa | 0 mm | - | 83 W/m² | - |
| 1777984054 | 9.44° C | 74% | 1007.7 hPa | 0 mm | - | 57 W/m² | - |
| 1777983752 | 9.44° C | 74% | 1006.9 hPa | 0 mm | - | 126 W/m² | - |
| 1777983448 | 8.89° C | 76% | 1006.8 hPa | 0 mm | - | 125 W/m² | - |
| 1777983145 | 8.89° C | 76% | 1006.4 hPa | 0 mm | - | 75 W/m² | - |
| 1777982841 | 8.89° C | 77% | 1006.6 hPa | 0 mm | - | 33 W/m² | - |
| 1777982537 | 8.89° C | 77% | 1006.9 hPa | 0 mm | - | 33 W/m² | - |
| 1777982236 | 8.89° C | 77% | 1006.7 hPa | 0 mm | - | 29 W/m² | - |
| 1777981934 | 8.89° C | 78% | 1006.4 hPa | 0 mm | - | 37 W/m² | - |
| 1777981631 | 8.89° C | 79% | 1006.5 hPa | 0 mm | - | 71 W/m² | - |
| 1777981327 | 8.33° C | 80% | 1006.5 hPa | 0 mm | - | 104 W/m² | - |
* Rain latest hour (hover to see other rain measurements)
** Current wind speed in m/s (hover to see current wind gust speed)